Home > Weather > Cottbus > Past weeks

Flag for Germany Past Weather in Cottbus, Brandenburg, Germany — Yesterday and Last 2 Weeks

Now
79 °F

Partly sunny.


Feels Like: 79 °F
Forecast: 65 / 83 °F
Wind: 6 mph from East

Location: Holzdorf

Current Time: Jul 23, 2016 at 9:15:38 PM

Latest Report: Jul 23, 2016 at 8:20 PM


Visibility: N/A

Pressure: 30.04 "Hg

Humidity: 45%

Dew Point: 55 °F

Location of CottbusLocation

Past Weather in Cottbus — Graph

°F

Cottbus Temperature Yesterday

Maximum temperature yesterday: 86 °F (at 3:20 PM)
Minimum temperature yesterday: 59 °F (at 4:20 AM)
Average temperature yesterday: 72 °F

High & Low Weather Summary for the Past Weeks

 TemperatureHumidityPressure
High88 °F (Jul 11, 3:20 PM)100% (Jul 13, 11:20 PM)30.27 "Hg (Jul 13, 11:20 PM)
Low46 °F (Jul 16, 2:20 AM)27% (Jul 16, 3:20 PM)29.74 "Hg (Jul 11, 4:20 AM)
Average68 °F67%30.01 "Hg
* Reported Jul 8 7:20 PM — Jul 23 7:20 PM, Cottbus, Weather by CustomWeather, © 2016

Note: Actual official high and low records may vary slightly from our data, if they occured in-between our weather recording intervals... More about our weather records

Advertising

Cottbus Weather History for the Previous 24 Hours

Scroll right to see more
 ConditionsComfort  
Time TempWeatherWind HumidityBarometerVisibility
7:20 PM
Sat, Jul 23
81 °FPartly sunny.6 mph42%30.04 "HgN/A
6:20 PM82 °FPartly sunny.5 mph35%30.04 "HgN/A
5:20 PM82 °FScattered clouds.7 mph32%30.04 "HgN/A
4:20 PM84 °FPartly sunny.7 mph31%30.04 "HgN/A
3:20 PM84 °FPartly sunny.9 mph27%30.04 "HgN/A
2:20 PM82 °FPartly sunny.9 mph35%30.07 "HgN/A
1:20 PM81 °FPartly sunny.7 mph37%30.07 "HgN/A
12:20 PM81 °FPartly sunny.9 mph37%30.07 "HgN/A
11:20 AM81 °FPartly sunny.12 mph37%30.07 "HgN/A
10:20 AM79 °FPartly sunny.9 mph39%30.07 "HgN/A
9:20 AM73 °FPartly sunny.3 mph50%30.07 "HgN/A
8:20 AM68 °FPartly sunny.3 mph60%30.07 "HgN/A
7:20 AM63 °FPartly sunny.5 mph68%30.04 "HgN/A
6:20 AM59 °FScattered clouds.2 mph77%30.04 "HgN/A
5:20 AM55 °FPassing clouds.3 mph82%30.04 "HgN/A
4:20 AM55 °FPassing clouds.3 mph82%30.04 "HgN/A
3:20 AM59 °FPassing clouds.6 mph68%30.04 "HgN/A
1:20 AM59 °FPassing clouds.5 mph59%30.04 "HgN/A
12:20 AM63 °FPassing clouds.5 mph49%30.04 "HgN/A
11:20 PM
Fri, Jul 22
66 °FPassing clouds.3 mph40%30.04 "HgN/A
10:20 PM68 °FPassing clouds.5 mph40%30.04 "HgN/A
9:20 PM73 °FScattered clouds.6 mph36%30.04 "HgN/A
Weather by CustomWeather, © 2016

See weather overviewHow to use our weather pages